Overview Statistics Trail Chart Weather Telemetry Raw packets
 

This is the latest recevied weather packets stored in our database for station/object WX5RP. If no packets are shown the sender has not sent any weather packets the latest 10 day(s).

<< 15 16 17 18 19 20 21 >>
Time Temp. Humidity Pressure Rain* Wind** Luminosity Snow
1777754116 20.56° C 29% 1014.5 hPa 0 mm - 291 W/m² -
1777753517 20.56° C 30% 1014 hPa 0 mm - 131 W/m² -
1777752916 21.67° C 25% 1014.5 hPa 0 mm - 146 W/m² -
1777752316 22.22° C 29% 1014 hPa 0 mm - 246 W/m² -
1777751715 23.33° C 25% 1014.7 hPa 0 mm - 587 W/m² -
1777751116 22.78° C 27% 1014.7 hPa 0 mm - 391 W/m² -
1777750516 22.78° C 24% 1014.7 hPa 0 mm - 383 W/m² -
1777749915 22.78° C 24% 1015.5 hPa 0 mm - 423 W/m² -
1777749315 22.78° C 25% 1015.2 hPa 0 mm - 667 W/m² -
1777748715 21.67° C 24% 1014.7 hPa 0 mm - 268 W/m² -
1777748115 22.78° C 21% 1015 hPa 0 mm - 659 W/m² -
1777747515 22.22° C 25% 1015.4 hPa 0 mm - 980 W/m² -
1777746916 21.67° C 22% 1015.6 hPa 0 mm - 1012 W/m² -
1777746318 21.11° C 27% 1015.7 hPa 0 mm - 1012 W/m² -
1777745715 20.56° C 25% 1016.3 hPa 0 mm - 943 W/m² -
1777745115 20° C 25% 1015.3 hPa 0 mm - 937 W/m² -
1777744515 18.89° C 27% 1015.4 hPa 0 mm - 795 W/m² -
1777743915 18.33° C 31% 1015.5 hPa 0 mm - 769 W/m² -
1777743317 17.78° C 31% 1015.1 hPa 0 mm - 816 W/m² -
1777742717 17.22° C 31% 1015.4 hPa 0 mm - 716 W/m² -
1777742117 16.67° C 38% 1015.5 hPa 0 mm - 660 W/m² -
1777741517 15.56° C 40% 1015.9 hPa 0 mm - 724 W/m² -
1777740917 15° C 43% 1016.4 hPa 0 mm - 679 W/m² -
1777740317 13.89° C 42% 1016.4 hPa 0 mm - 419 W/m² -
1777739717 13.89° C 46% 1016.5 hPa 0 mm - 618 W/m² -

* Rain latest hour (hover to see other rain measurements)
** Current wind speed in m/s (hover to see current wind gust speed)